Location: Grust
(42.8833°N, 0.0333°W)
Time: 20:06:17
(UTC+00:00)

Cosmos 1340 - Pass Details

Date: 25 October 2020
Orbit: 501 x 504 km, 81.2° (Epoch: 23 November)

Event Time Altitude Azimuth Distance (km) Brightness Sun altitude
Rises 18:37:44 0° 348° (NNW) 2,613 6.4 -18.2°
Reaches altitude 10° 18:39:52 10° 347° (NNW) 1,724 5.5 -18.6°
Maximum altitude 18:43:38 77° 262° (W) 523 2.7 -19.3°
Drops below altitude 10° 18:47:23 10° 176° (S) 1,711 5.3 -20.0°
Sets 18:49:30 0° 175° (S) 2,590 6.2 -20.4°
